[[{"header":{"parameterUnit":"m.s-1","parameterCategory":1,"la1":30.2991,"la2":30.254,"lo1":-89.0895,"lo2":-89.0444,"dy":0.0017,"dx":0.0017,"nx":28,"ny":28,"refTime":"2025-02-12T09:00:00:Z","depth":0,"parameterNumber":2,"parameterNumberName":"U-component_of_WINDS"},"data":[0,0,0,0,0,0,0,0,0,0,0,0,0,0,0,0,0,0,0,0,0,0,0,0,0,0,0,0,0,0,0,0,0,0,0,0,0,0,0,0,0,0,0,0,0,0,0,0,0,0,0,0,0,0,0,0,0,0,2.4434,2.4433,0,2.4349,2.4348,2.4347,2.4262,2.4261,2.4259,2.4258,2.4172,2.4171,2.417,0,0,0,0,0,0,0,0,0,0,0,0,0,2.4523,2.4522,2.4434,2.4433,2.4432,2.4349,2.4348,2.4347,2.4262,2.4261,2.4259,2.4258,2.4173,2.4171,2.417,0,0,0,0,0,0,0,0,0,0,0,0,0,2.4466,2.4522,2.4434,2.4379,2.4374,2.4349,2.4348,2.4346,2.4262,2.4261,2.4259,2.4257,2.4173,2.4171,2.417,2.4192,0,0,2.4164,2.4163,0,0,0,0,0,0,0,0,2.447,2.4463,2.4389,2.4383,2.4377,2.4314,2.4348,2.4295,2.4263,2.4305,2.4258,2.4256,2.4221,2.4215,2.4203,2.4188,2.4185,2.4164,2.4163,2.4162,2.4161,0,0,0,0,0,0,0,2.4474,2.4466,2.44,2.4388,2.438,2.4359,2.4349,2.4337,2.4273,2.4301,2.4294,2.4285,2.4217,2.4205,2.42,2.4183,2.4164,2.4162,2.4161,2.416,2.4184,2.4185,0,0,0,0,0,0,2.4486,2.447,2.4403,2.4398,2.442,2.4359,2.4348,2.4336,2.4273,2.4262,2.4287,2.4282,2.4209,2.4202,2.4197,2.4219,2.4162,2.416,2.4159,2.4182,2.4184,2.4186,0,0,0,0,0,0,2.4488,2.4481,2.4406,2.4432,2.4421,2.4359,2.4347,2.4335,2.4322,2.4263,2.4251,2.4286,2.4207,2.4199,2.4194,2.4215,2.4159,2.4158,2.418,2.4183,2.4185,2.4265,0,0,0,0,0,0,2.4491,2.4482,2.449,2.4433,2.442,2.4405,2.4348,2.4335,2.4319,2.4312,2.4259,2.4248,2.4205,2.4197,2.4192,2.4212,2.4156,2.4178,2.4181,2.4184,2.426,2.427,2.4278,0,0,0,0,0,2.4494,2.4516,2.4491,2.4483,2.4428,2.4406,2.4399,2.4349,2.4322,2.4329,2.4291,2.425,2.4214,2.4198,2.4191,2.421,2.4176,2.418,2.4184,2.4256,2.4268,2.4278,0,0,0,0,0,0,2.4577,2.4507,2.4479,2.4482,2.4451,2.4392,2.44,2.4363,2.4339,2.4333,2.4272,2.4261,2.4262,2.4236,2.4219,2.4229,2.4189,2.4192,2.4246,2.4257,2.4266,2.4273,2.4155,0,0,0,0,0,2.4595,2.4583,2.4523,2.4532,2.4518,2.4462,2.445,2.4414,2.4379,2.4366,2.4327,2.4295,2.4276,2.4265,2.4245,2.4256,2.4243,2.4266,2.4275,2.4283,2.4286,2.429,2.43,2.4199,2.4199,2.4198,0,0,2.4633,2.4594,2.459,2.4547,2.4519,2.4508,2.4451,2.4442,2.4433,2.4364,2.4357,2.4328,2.4288,2.4291,2.429,2.4269,2.4311,2.4288,2.4295,2.4293,2.4295,2.4305,2.4313,2.4201,2.4201,2.42,0,0,2.4697,2.4666,2.467,2.4643,2.46,2.4563,2.4564,2.4511,2.4489,2.448,2.4429,2.4418,2.4387,2.4361,2.4344,2.4399,2.436,2.4394,2.4441,2.4446,2.4454,2.4461,2.448,2.4488,2.4397,2.4397,2.4397,0,2.475,2.473,2.4677,2.467,2.4653,2.4591,2.4595,2.4571,2.4525,2.4515,2.4491,2.4451,2.442,2.4416,2.443,2.4418,2.4417,2.4399,2.4457,2.4463,2.4469,2.4487,2.4494,2.4402,2.4401,2.4401,2.44,0,2.4797,2.4785,2.4793,2.475,2.4734,2.4733,2.4679,2.467,2.4636,2.4601,2.4594,2.4554,2.4525,2.4521,2.4488,2.4513,2.4501,2.4468,2.4427,2.4484,2.4499,2.4506,2.4408,2.4406,2.4405,2.4404,0,0,2.4909,2.4837,2.4841,2.482,2.477,2.4759,2.4756,2.4727,2.472,2.469,2.4685,2.4661,2.4631,2.4611,2.4574,2.4579,2.4625,2.4545,2.4543,2.4561,2.465,2.4675,2.4683,2.4599,2.46,2.4601,2.4653,0,2.4964,2.4953,2.4905,2.4909,2.4897,2.4838,2.4835,2.4804,2.4772,2.4757,2.4722,2.4706,2.4667,2.4655,2.4656,2.4619,2.4642,2.4614,2.4595,2.4595,2.4606,2.4692,2.4717,2.4768,2.4659,2.466,2.4661,0,2.5026,2.5,2.5003,2.4953,2.4946,2.4944,2.4914,2.4901,2.4864,2.4841,2.482,2.4778,2.4772,2.4734,2.4724,2.4706,2.4695,2.4676,2.4677,2.4672,2.4631,2.469,2.4783,2.4791,2.467,2.4669,2.4669,0,2.5107,2.5073,2.507,2.5055,2.4996,2.4997,2.4972,2.4934,2.492,2.4894,2.4884,2.4858,2.4844,2.4825,2.4778,2.4754,2.4773,2.4731,2.4753,2.4755,2.4759,2.476,2.4853,2.4754,2.4753,2.4753,2.4753,0,2.5173,2.5177,2.5106,2.5105,2.5107,2.5053,2.5057,2.5027,2.4994,2.4985,2.4933,2.4927,2.4865,2.4852,2.4815,2.4813,2.4807,2.4788,2.4778,2.4792,2.4794,2.4783,2.4779,2.4755,2.4755,2.4754,2.4754,0,2.5264,2.5217,2.521,2.5155,2.5142,2.5146,2.5099,2.5096,2.5061,2.5051,2.5046,2.4991,2.4972,2.4924,2.4893,2.4868,2.4876,2.4858,2.4888,2.4882,2.4907,2.4905,2.4996,2.5005,2.4901,2.4902,2.4903,0,2.5308,2.531,2.5256,2.5247,2.5224,2.521,2.5196,2.5142,2.5129,2.5088,2.509,2.5067,2.5046,2.5019,2.4977,2.4953,2.4934,2.4967,2.493,2.4944,2.4934,2.4934,2.4934,2.4975,2.4977,2.4978,2.4979,0,2.5393,2.537,2.535,2.5324,2.5308,2.5284,2.5258,2.5253,2.5193,2.5181,2.5162,2.5146,2.5114,2.5092,2.5062,2.5037,2.4998,2.4991,2.4995,2.5009,2.5027,2.5017,2.491,2.4989,2.4988,2.4987,2.4987,2.4986,2.5461,2.546,2.5422,2.5403,2.5377,2.5354,2.5348,2.5313,2.5295,2.5265,2.5235,2.5219,2.5183,2.5138,2.5116,2.5103,2.5082,2.5088,2.5089,2.5091,2.5098,2.503,2.5097,2.5097,2.5096,2.5096,2.5096,0,2.5542,2.5515,2.5498,2.5463,2.5448,2.5413,2.5382,2.5372,2.5358,2.5328,2.5309,2.5287,2.5265,2.5222,2.5197,2.5195,2.5176,2.519,2.5189,2.5184,2.5118,2.5117,2.5205,2.5205,2.5205,2.5205,2.5205,2.5205,2.5583,2.5579,2.5552,2.5535,2.5508,2.5491,2.5477,2.5455,2.5431,2.5408,2.5391,2.5362,2.5327,2.5299,2.5278,2.5266,2.5259,2.5279,2.5261,2.5199,2.5189,2.5179,2.5178,2.5278,2.5278,2.5328,2.5329,2.5329]},{"header":{"parameterUnit":"m.s-1","parameterCategory":1,"la1":30.2991,"la2":30.254,"lo1":-89.0895,"lo2":-89.0444,"dy":0.0017,"dx":0.0017,"nx":28,"ny":28,"refTime":"2025-02-12T09:00:00:Z","depth":0,"parameterNumber":3,"parameterNumberName":"V-component_of_WINDS"},"data":[0,0,0,0,0,0,0,0,0,0,0,0,0,0,0,0,0,0,0,0,0,0,0,0,0,0,0,0,0,0,0,0,0,0,0,0,0,0,0,0,0,0,0,0,0,0,0,0,0,0,0,0,0,0,0,0,0,0,7.5315,7.5317,0,7.5451,7.5453,7.5454,7.5452,7.545,7.5448,7.5446,7.5585,7.559,7.5595,0,0,0,0,0,0,0,0,0,0,0,0,0,7.5052,7.5057,7.5315,7.5317,7.5318,7.5451,7.5453,7.5455,7.5452,7.545,7.5447,7.5445,7.5583,7.5589,7.5596,0,0,0,0,0,0,0,0,0,0,0,0,0,7.5175,7.5059,7.5315,7.5333,7.5336,7.545,7.5453,7.5455,7.5452,7.545,7.5447,7.5444,7.5581,7.5589,7.5597,7.5702,0,0,7.5622,7.5625,0,0,0,0,0,0,0,0,7.5168,7.5185,7.5329,7.5332,7.5336,7.5432,7.5411,7.5538,7.5453,7.5408,7.5446,7.5443,7.5536,7.5548,7.5579,7.5708,7.5714,7.5622,7.5627,7.5631,7.5633,0,0,0,0,0,0,0,7.516,7.5179,7.5369,7.5331,7.5335,7.5334,7.5349,7.5435,7.5486,7.5412,7.5412,7.5428,7.5537,7.5571,7.5582,7.5716,7.5622,7.5629,7.5634,7.5637,7.5939,7.5942,0,0,0,0,0,0,7.5148,7.5172,7.5364,7.5373,7.5243,7.5341,7.5357,7.5403,7.5485,7.5495,7.543,7.5428,7.5559,7.5573,7.5587,7.5716,7.5631,7.5638,7.5643,7.5936,7.594,7.5943,0,0,0,0,0,0,7.5142,7.5165,7.5359,7.5273,7.5297,7.5349,7.5401,7.5408,7.5442,7.5499,7.5508,7.5456,7.5557,7.5576,7.5674,7.5721,7.5642,7.5649,7.5932,7.5937,7.5942,7.5975,0,0,0,0,0,0,7.5134,7.5163,7.5203,7.5273,7.5302,7.5443,7.5403,7.5412,7.5456,7.5453,7.5525,7.5534,7.5557,7.5662,7.5682,7.5731,7.5656,7.5928,7.5935,7.594,7.597,7.598,7.5989,0,0,0,0,0,7.5125,7.5207,7.5205,7.5228,7.5354,7.5446,7.5462,7.5486,7.5459,7.5501,7.5537,7.5532,7.5712,7.5672,7.5694,7.5747,7.5926,7.5933,7.594,7.5965,7.5978,7.5989,0,0,0,0,0,0,7.514,7.5216,7.5215,7.5322,7.5378,7.5445,7.5498,7.5499,7.5562,7.5558,7.5584,7.5601,7.5699,7.5732,7.5685,7.5853,7.5816,7.5828,7.5827,7.584,7.5849,7.584,7.5662,0,0,0,0,0,7.5156,7.5225,7.5287,7.5376,7.5404,7.5446,7.5487,7.5501,7.5559,7.5583,7.5626,7.5683,7.5753,7.5798,7.5865,7.5974,7.599,7.6022,7.6031,7.6039,7.6049,7.611,7.6125,7.5967,7.5967,7.5967,0,0,7.5189,7.5239,7.5281,7.538,7.5425,7.5495,7.5466,7.5542,7.5594,7.5594,7.5689,7.5724,7.5789,7.5893,7.5941,7.5924,7.6096,7.6048,7.6053,7.606,7.6119,7.6134,7.6148,7.5972,7.5971,7.597,0,0,7.5286,7.5331,7.541,7.5455,7.5523,7.5551,7.557,7.5638,7.5661,7.5757,7.5758,7.5821,7.594,7.5987,7.6026,7.6142,7.614,7.6163,7.6214,7.6273,7.6286,7.6297,7.6339,7.6354,7.6173,7.6173,7.6173,0,7.5319,7.5426,7.545,7.5527,7.5571,7.5574,7.5654,7.5697,7.5783,7.5814,7.5793,7.5943,7.5987,7.6103,7.6131,7.6163,7.6186,7.6155,7.6282,7.6293,7.6304,7.6345,7.6361,7.6175,7.6175,7.6175,7.6175,0,7.5464,7.5538,7.5593,7.5678,7.5727,7.5805,7.5841,7.5889,7.5898,7.5928,7.6026,7.6079,7.6158,7.6186,7.6196,7.6304,7.6291,7.6276,7.6239,7.6321,7.636,7.6376,7.6179,7.6178,7.6177,7.6177,0,0,7.5574,7.5671,7.5691,7.573,7.5805,7.5863,7.5941,7.6018,7.6059,7.6118,7.6185,7.6286,7.6273,7.6318,7.6333,7.6385,7.6474,7.6364,7.6366,7.6383,7.6598,7.6609,7.6627,7.6473,7.6476,7.6479,7.6593,0,7.568,7.582,7.5844,7.5966,7.6036,7.604,7.6108,7.6162,7.6192,7.6255,7.6288,7.636,7.6336,7.6364,7.6415,7.6452,7.6518,7.6444,7.6536,7.6539,7.6521,7.6647,7.6659,7.6764,7.6608,7.661,7.6612,0,7.5822,7.5886,7.6016,7.6083,7.6113,7.6174,7.6247,7.6307,7.6368,7.6386,7.6437,7.6446,7.6528,7.6487,7.66,7.655,7.6589,7.6613,7.6618,7.6628,7.6581,7.6662,7.6798,7.6815,7.6636,7.6634,7.6632,0,7.5892,7.601,7.6103,7.6136,7.6216,7.6259,7.6294,7.6353,7.6398,7.6461,7.6491,7.6563,7.6603,7.6659,7.6687,7.6655,7.6799,7.676,7.6817,7.6817,7.6848,7.6846,7.6994,7.6872,7.6872,7.6871,7.6871,0,7.6008,7.6087,7.6135,7.6192,7.6281,7.6308,7.6396,7.643,7.6482,7.6546,7.6554,7.6614,7.6648,7.6713,7.6736,7.6827,7.6844,7.6862,7.6867,7.6862,7.686,7.6888,7.6882,7.6875,7.6874,7.6874,7.6873,0,7.61,7.6136,7.6238,7.6305,7.6324,7.6387,7.6445,7.6501,7.6531,7.6612,7.6633,7.668,7.6757,7.6791,7.6886,7.6901,7.7006,7.7005,7.6985,7.6987,7.7043,7.7037,7.7215,7.724,7.71,7.7101,7.7102,0,7.6173,7.6234,7.6309,7.6353,7.6389,7.6459,7.6506,7.6534,7.6582,7.6657,7.6704,7.6781,7.6845,7.6968,7.7011,7.7084,7.7086,7.7143,7.7097,7.709,7.7088,7.7084,7.7091,7.7152,7.7153,7.7154,7.7155,0,7.6298,7.6313,7.6379,7.6452,7.6507,7.6566,7.6623,7.6659,7.6696,7.675,7.6829,7.6878,7.6976,7.7053,7.7128,7.7165,7.7167,7.7169,7.7187,7.7182,7.7169,7.7178,7.7009,7.7165,7.7164,7.7164,7.7163,7.7163,7.6384,7.6439,7.65,7.6574,7.662,7.6674,7.673,7.6767,7.6834,7.6916,7.6928,7.7013,7.7074,7.7175,7.7215,7.7282,7.7268,7.7292,7.7299,7.7305,7.7309,7.7157,7.7296,7.7295,7.7295,7.7295,7.7295,0,7.651,7.655,7.6618,7.6698,7.6757,7.6753,7.6817,7.6866,7.694,7.6997,7.7059,7.7151,7.7226,7.7274,7.735,7.7394,7.7397,7.7414,7.7411,7.742,7.7316,7.7294,7.741,7.741,7.741,7.741,7.741,7.741,7.6583,7.6676,7.6698,7.6814,7.6853,7.6937,7.6974,7.7023,7.7068,7.717,7.7233,7.7264,7.7318,7.7398,7.7466,7.7479,7.7507,7.7524,7.7536,7.7439,7.7427,7.7415,7.7395,7.753,7.753,7.7634,7.7635,7.7635]}]]